Location: Mahannah Oil Field
(37.4664°N, 96.6003°W)
Time: 10:34:23
(UTC+00:00)

Transit 2A Rocket - Pass Details

Date: 28 January 2021
Orbit: 594 x 909 km, 66.7° (Epoch: 03 March)

Event Time Altitude Azimuth Distance (km) Brightness Sun altitude
Rises 01:52:50 0° 344° (NNW) 2,889 8.1 -25.3°
Enters shadow 01:54:59 - 354° (N) 2,120 7.3 -25.7°
Reaches altitude 10° 01:55:30 10° 358° (N) 1,954 - -25.8°
Maximum altitude 01:59:03 24° 53° (NE) 1,250 - -26.5°
Drops below altitude 10° 02:02:33 10° 108° (ESE) 1,925 - -27.2°
Sets 02:05:08 0° 122° (ESE) 2,834 - -27.7°
